Wind_Speed
3 2 2 2 2 2 3 2 3 3 4 5 5 6 8 9 9 11 12 11 11 12 12 11 12 13 14 15 14 13 14 14 15 15 15 15 14 13 13 13 11 9
3 2 2 2 1 3 3 2 3 4 4 5 6 8 10 10 9 10 10 9 10 10 10 9 10 11 13 13 13 13 14 14 15 15 15 14 13 13 13 14 12 11
1 1 2 2 2 3 3 3 4 5 5 7 7 7 9 8 5 6 6 6 8 8 8 9 10 11 13 13 12 13 14 14 16 15 14 12 12 13 14 15 15 14
2 3 3 2 2 3 4 4 5 6 6 7 6 4 5 6 4 3 3 4 6 9 9 10 12 13 14 15 15 15 15 15 17 16 13 12 13 14 15 16 16 16
3 3 2 2 2 3 4 4 4 3 4 5 3 2 3 4 6 6 6 6 7 9 10 11 14 16 18 18 18 17 16 15 17 17 15 15 15 16 17 17 17 17
2 2 2 1 1 1 2 2 3 3 4 3 0 1 2 4 5 6 7 7 8 10 11 12 13 16 19 21 20 19 17 16 16 17 16 15 15 16 17 18 18 19
2 2 3 3 4 4 5 4 3 1 0 1 3 3 4 4 4 6 7 8 9 10 11 11 12 15 18 21 22 21 19 17 17 16 16 16 16 17 17 18 19 20
4 5 6 6 6 5 4 3 1 3 3 3 3 3 4 5 6 8 9 10 11 12 12 12 13 16 19 22 24 24 21 19 18 18 17 17 17 17 18 18 19 20
6 7 7 5 4 4 3 3 3 3 3 4 4 4 5 6 8 10 11 11 13 14 14 14 15 18 20 22 25 25 22 20 19 18 18 18 18 18 18 19 19 19
7 6 6 5 3 4 3 4 4 3 4 4 5 5 7 8 11 12 12 13 14 15 16 16 17 20 21 23 25 25 22 19 19 18 18 18 18 18 18 19 19 19
7 6 5 4 3 4 4 5 5 4 4 5 6 7 8 10 12 13 14 15 15 16 16 16 18 21 22 24 25 23 21 19 19 18 18 18 18 18 18 18 18 17
7 5 4 2 3 4 5 5 6 6 6 7 8 9 10 11 12 13 14 15 15 14 15 17 21 23 23 24 24 22 21 20 19 18 17 17 17 17 17 17 16 16
5 3 3 4 5 5 6 7 7 7 8 9 9 10 12 13 13 12 13 15 15 15 17 20 24 25 24 23 23 22 21 21 20 20 19 18 17 17 17 17 16 16
3 3 4 5 6 7 8 9 9 9 10 10 10 11 13 14 14 14 15 17 17 18 20 23 26 26 24 23 23 21 20 20 20 20 19 19 18 18 18 18 17 17
3 4 6 6 7 8 9 9 10 11 11 10 9 12 14 14 15 15 16 17 19 21 22 23 25 25 24 22 21 20 19 19 19 19 19 19 18 18 18 18 18 19
4 5 6 7 8 9 9 10 11 13 13 11 10 12 15 15 16 17 17 18 19 21 22 22 24 23 21 21 20 19 19 19 19 19 19 19 19 18 18 19 19 21
5 6 7 8 9 10 11 12 13 14 14 13 13 14 16 17 17 18 19 19 20 22 22 21 22 20 19 19 18 18 19 19 19 19 19 19 19 19 20 21 22 24
7 8 9 10 10 11 12 14 15 15 15 15 15 16 16 16 17 18 20 21 21 22 22 21 19 17 17 17 17 18 18 19 19 20 19 20 20 21 22 23 25 27
8 9 10 11 12 13 14 15 16 17 17 16 16 18 17 15 17 20 22 23 23 22 21 19 18 16 16 17 17 17 18 18 19 19 20 21 21 22 24 25 27 29
10 11 12 13 14 14 15 16 17 17 17 17 16 18 17 17 19 22 23 23 22 21 19 18 16 15 16 16 17 18 18 19 19 20 20 21 22 24 25 26 28 29
11 13 13 15 16 17 17 18 18 17 16 16 16 17 18 19 21 22 22 22 21 19 18 17 16 16 17 17 18 19 19 20 20 20 21 22 24 25 26 27 28 29
14 15 15 16 17 18 19 19 18 16 15 16 16 18 20 21 21 21 21 20 18 17 17 17 17 17 18 19 19 20 20 20 21 22 23 24 25 25 26 27 28 29
16 16 16 17 17 18 18 17 16 15 15 17 19 20 21 21 21 20 19 18 17 16 17 18 18 19 20 20 21 21 21 22 23 23 24 25 25 25 26 26 27 28
17 18 18 18 18 17 16 15 15 16 18 20 21 21 22 21 20 19 18 17 16 17 18 19 20 20 21 21 22 22 22 23 24 24 25 25 24 24 25 26 26 27
18 19 18 18 17 16 15 16 17 19 20 21 21 22 21 20 19 17 17 16 17 18 19 21 22 21 21 21 22 23 24 25 25 26 25 25 24 24 24 25 25 26
19 18 18 17 16 16 17 18 19 20 20 21 21 20 19 18 17 16 16 17 18 19 21 21 22 21 21 21 23 24 26 27 27 27 26 25 24 24 25 24 24 25
Wind_Direction
92 96 127 166 203 200 194 207 228 244 262 285 301 297 291 292 290 287 290 295 296 299 304 306 308 308 305 309 318 315 312 317 317 311 314 319 320 324 325 320 315 302
103 103 120 138 151 174 188 215 239 248 270 284 284 285 292 297 287 281 291 300 304 314 325 326 320 314 314 320 323 318 318 319 313 310 317 320 318 320 320 319 318 307
115 131 132 148 161 184 206 231 252 265 273 271 270 278 295 307 297 278 286 300 317 332 337 335 335 332 331 333 327 322 323 317 311 315 320 314 310 311 310 312 313 309
137 150 147 171 200 212 225 241 261 272 270 270 275 266 276 308 333 336 324 330 339 339 339 344 349 351 349 346 338 331 328 318 314 318 317 307 302 303 303 304 306 306
118 135 150 181 216 233 242 253 263 263 254 264 276 236 262 327 353 350 341 345 346 339 343 351 352 355 358 355 349 341 333 323 318 319 317 311 307 303 303 303 302 301
121 142 168 173 152 194 186 185 206 211 228 246 89 74 330 358 356 337 332 339 343 340 345 349 349 354 357 355 351 346 338 329 322 321 321 318 314 310 309 309 306 304
122 125 134 135 134 144 146 160 185 159 152 358 49 32 346 345 333 321 321 326 330 330 332 335 340 346 349 349 349 344 338 329 323 323 322 320 317 315 315 312 309 311
117 120 126 132 133 134 136 141 107 62 48 16 15 359 334 327 318 315 319 323 323 321 320 324 332 337 338 342 344 341 336 328 323 323 320 318 317 315 314 312 311 315
119 118 118 119 115 119 120 91 58 38 15 357 352 343 330 324 320 318 321 322 320 319 317 317 324 328 330 335 337 335 333 327 322 320 317 316 315 313 312 311 312 313
115 111 107 100 79 73 62 33 22 9 350 340 333 326 321 317 312 311 314 315 314 316 315 313 318 320 322 329 331 329 329 325 321 318 316 315 314 313 313 313 313 314
115 111 106 95 60 43 25 359 347 344 335 323 321 323 321 314 309 310 312 310 310 313 314 315 315 314 319 327 327 326 327 325 321 319 317 316 316 316 316 316 317 316
121 115 102 61 22 13 1 346 340 341 329 320 327 330 325 318 314 316 315 309 309 312 315 319 316 313 321 326 323 325 328 325 323 323 322 322 321 321 320 319 318 316
109 88 46 13 4 1 353 343 342 340 326 324 334 331 323 320 317 318 315 313 316 316 317 320 316 315 323 326 323 326 328 325 325 326 326 327 325 323 321 318 318 317
64 28 9 1 357 355 347 340 339 333 323 329 337 327 319 319 318 316 316 318 319 318 319 318 315 319 327 327 325 327 327 325 326 326 326 325 323 321 319 316 316 314
22 5 359 353 349 347 340 335 332 324 322 334 337 324 322 323 321 317 315 317 318 317 320 319 316 323 329 326 325 328 327 326 327 325 324 322 320 318 316 313 312 311
3 357 354 347 341 338 333 328 325 319 322 334 334 325 324 323 320 317 314 315 317 319 321 320 319 325 328 325 328 329 327 327 326 324 323 321 320 319 316 314 311 310
355 351 349 344 339 338 333 328 327 324 325 332 332 326 324 320 317 316 317 319 321 321 323 322 325 330 330 328 331 330 327 327 326 325 325 323 323 321 318 316 314 312
346 346 344 341 338 339 336 332 331 330 331 335 332 327 325 323 319 319 322 324 325 326 327 328 331 335 333 331 331 329 328 327 326 326 326 325 324 321 318 316 313 312
341 342 341 337 335 338 338 335 335 335 336 337 332 328 327 326 323 324 326 328 330 332 332 332 336 339 335 331 330 329 329 329 328 327 326 323 321 317 315 313 311 310
338 338 336 332 330 333 336 337 337 337 335 332 329 328 327 325 325 327 328 329 332 334 334 335 339 339 334 332 332 333 333 331 329 327 324 320 318 315 314 313 312 312
335 332 331 328 328 331 336 337 337 336 332 328 329 329 326 326 328 328 329 330 332 334 335 336 339 340 337 335 335 335 334 330 328 325 322 320 319 318 317 316 315 314
334 331 330 330 330 333 335 334 334 335 331 328 329 329 326 327 330 330 330 332 333 334 334 335 340 341 339 337 335 334 332 329 327 326 324 323 322 320 319 317 315 315
336 333 334 333 332 333 334 334 334 334 330 328 329 328 327 329 331 331 333 334 335 335 335 336 340 341 339 337 335 333 332 330 329 327 325 324 322 321 319 317 315 315
336 335 336 335 333 332 331 331 330 328 327 328 328 327 327 330 333 334 336 337 335 336 337 337 340 341 339 337 334 332 331 331 329 327 325 324 324 323 320 318 316 315
335 335 334 332 330 329 327 327 326 325 326 326 326 326 328 331 334 335 336 338 338 340 340 339 339 340 338 335 333 331 331 330 329 328 326 324 323 322 322 321 319 318
333 333 330 326 324 325 326 327 325 323 323 323 324 327 329 331 334 336 338 340 341 341 340 338 337 338 337 336 335 332 331 331 329 327 325 323 323 322 322 323 322 322
Height
3173 3174 3175 3176 3177 3178 3179 3179 3180 3180 3180 3180 3180 3179 3179 3179 3179 3178 3177 3177 3177 3177 3177 3176 3176 3175 3174 3173 3173 3172 3171 3170 3169 3168 3167 3166 3166 3165 3165 3165 3164 3164
3174 3175 3176 3177 3177 3178 3179 3179 3180 3180 3180 3180 3180 3179 3178 3178 3178 3177 3177 3177 3176 3176 3176 3175 3175 3174 3173 3173 3172 3171 3170 3169 3168 3166 3166 3165 3165 3164 3164 3164 3163 3163
3174 3175 3176 3177 3177 3178 3178 3179 3179 3179 3179 3179 3179 3179 3178 3177 3177 3177 3177 3177 3176 3176 3175 3174 3174 3173 3173 3172 3171 3170 3169 3167 3166 3165 3165 3164 3163 3163 3163 3162 3162 3161
3175 3176 3176 3177 3177 3177 3178 3178 3178 3178 3179 3179 3179 3179 3178 3177 3177 3177 3177 3176 3175 3175 3174 3173 3173 3172 3171 3170 3169 3168 3168 3166 3164 3164 3164 3163 3162 3162 3161 3161 3160 3160
3175 3176 3176 3176 3177 3177 3177 3178 3178 3178 3178 3178 3178 3178 3178 3177 3176 3176 3176 3176 3175 3174 3173 3172 3172 3171 3170 3169 3168 3167 3166 3165 3163 3162 3162 3162 3161 3160 3159 3159 3159 3158
3175 3176 3176 3176 3177 3177 3177 3178 3178 3178 3178 3178 3178 3178 3178 3177 3176 3176 3175 3175 3174 3173 3173 3172 3171 3170 3169 3168 3167 3166 3165 3164 3162 3161 3161 3160 3160 3159 3158 3157 3157 3156
3176 3176 3176 3177 3177 3178 3178 3178 3178 3179 3178 3178 3178 3178 3177 3177 3177 3176 3175 3174 3174 3173 3173 3172 3171 3170 3169 3167 3166 3165 3164 3162 3161 3160 3159 3158 3158 3157 3156 3155 3154 3154
3176 3177 3177 3178 3178 3179 3179 3179 3178 3178 3178 3178 3178 3178 3178 3177 3177 3176 3175 3175 3174 3173 3172 3171 3170 3169 3168 3167 3165 3164 3162 3161 3159 3159 3158 3156 3156 3155 3154 3153 3152 3152
3177 3177 3178 3178 3178 3178 3179 3179 3178 3178 3178 3178 3178 3178 3178 3177 3176 3175 3175 3174 3173 3172 3171 3170 3169 3168 3167 3166 3164 3162 3161 3160 3158 3157 3156 3155 3154 3153 3152 3151 3150 3150
3177 3178 3178 3178 3179 3179 3179 3179 3179 3179 3179 3179 3178 3178 3178 3177 3176 3175 3174 3173 3172 3171 3170 3170 3169 3167 3166 3165 3163 3161 3160 3158 3157 3156 3155 3153 3152 3151 3150 3149 3149 3148
3178 3178 3179 3179 3180 3180 3180 3180 3180 3180 3179 3179 3179 3178 3178 3177 3175 3174 3174 3172 3171 3170 3169 3169 3167 3166 3165 3163 3161 3160 3158 3156 3155 3154 3153 3152 3151 3150 3149 3148 3147 3146
3179 3180 3180 3181 3181 3181 3180 3180 3180 3180 3179 3179 3179 3178 3177 3176 3175 3174 3173 3171 3170 3169 3168 3167 3165 3164 3163 3162 3160 3158 3156 3155 3153 3152 3151 3150 3149 3148 3147 3146 3145 3144
3181 3181 3181 3181 3181 3180 3180 3180 3180 3180 3179 3179 3179 3178 3176 3175 3174 3173 3172 3170 3169 3168 3167 3166 3163 3161 3161 3160 3157 3156 3154 3153 3152 3151 3149 3149 3147 3146 3145 3144 3144 3143
3181 3181 3181 3181 3181 3181 3181 3180 3180 3180 3179 3180 3179 3178 3176 3174 3173 3172 3171 3169 3168 3167 3166 3164 3161 3159 3159 3157 3155 3154 3153 3151 3150 3149 3148 3147 3146 3145 3144 3143 3142 3141
3181 3181 3181 3181 3181 3181 3181 3180 3180 3179 3179 3180 3179 3177 3175 3174 3173 3171 3170 3168 3167 3165 3164 3162 3159 3158 3157 3155 3154 3152 3151 3150 3149 3147 3146 3145 3144 3143 3142 3141 3140 3139
3182 3182 3182 3181 3181 3181 3180 3180 3179 3178 3178 3179 3178 3176 3174 3173 3171 3170 3169 3167 3165 3164 3162 3160 3158 3157 3156 3154 3152 3151 3150 3149 3147 3146 3145 3144 3142 3141 3140 3139 3138 3137
3182 3181 3181 3181 3181 3180 3180 3179 3178 3177 3176 3176 3175 3174 3173 3171 3170 3168 3167 3165 3164 3162 3161 3159 3157 3156 3154 3152 3151 3150 3149 3147 3146 3145 3144 3142 3141 3140 3138 3137 3135 3134
3181 3181 3181 3180 3180 3179 3178 3177 3176 3176 3175 3174 3173 3172 3171 3169 3168 3166 3165 3163 3162 3160 3158 3157 3156 3155 3153 3151 3150 3149 3148 3146 3145 3144 3142 3140 3139 3137 3136 3135 3133 3131
3181 3180 3180 3179 3178 3178 3178 3176 3175 3174 3174 3173 3172 3170 3168 3167 3166 3164 3163 3161 3159 3158 3157 3155 3154 3153 3152 3150 3149 3148 3147 3145 3144 3142 3140 3139 3137 3136 3134 3132 3130 3128
3179 3179 3178 3178 3177 3177 3177 3176 3174 3173 3173 3172 3170 3168 3167 3166 3164 3163 3161 3159 3158 3156 3155 3154 3153 3152 3151 3149 3148 3147 3145 3144 3142 3140 3139 3137 3135 3134 3132 3130 3128 3125
3178 3177 3177 3177 3176 3174 3174 3174 3173 3172 3171 3170 3168 3167 3165 3164 3163 3161 3159 3158 3157 3155 3154 3153 3152 3151 3149 3148 3146 3145 3143 3142 3140 3139 3137 3135 3133 3131 3129 3127 3125 3122
3177 3177 3176 3176 3175 3173 3172 3172 3172 3170 3169 3168 3167 3166 3164 3163 3161 3160 3158 3157 3156 3154 3153 3152 3151 3149 3148 3146 3145 3143 3142 3140 3139 3137 3135 3133 3131 3129 3127 3125 3123 3120
3176 3175 3175 3174 3173 3173 3172 3171 3170 3169 3168 3167 3166 3164 3163 3161 3160 3159 3157 3156 3154 3153 3152 3150 3149 3148 3146 3144 3143 3141 3140 3138 3137 3135 3133 3131 3130 3127 3125 3123 3121 3118
3175 3174 3174 3174 3172 3172 3171 3170 3169 3168 3167 3166 3164 3162 3161 3160 3159 3157 3156 3154 3153 3152 3150 3149 3148 3146 3145 3143 3141 3139 3138 3137 3135 3133 3131 3129 3128 3126 3123 3121 3118 3116
3174 3173 3173 3172 3172 3171 3170 3169 3167 3167 3165 3164 3163 3161 3160 3158 3157 3156 3154 3153 3152 3150 3149 3147 3146 3145 3143 3141 3140 3138 3136 3135 3133 3131 3129 3127 3125 3123 3121 3119 3116 3113
3174 3173 3172 3171 3170 3170 3169 3167 3166 3165 3164 3163 3162 3160 3159 3157 3156 3154 3153 3152 3150 3149 3148 3146 3145 3143 3142 3140 3138 3137 3135 3133 3131 3129 3127 3125 3123 3121 3118 3116 3114 3111